Simultaneous Nadir Overpasses (SNOs) Predictions

Prediction of SNOs between FY3D and LANDSAT-8 Satellite Orbit:

Table of predicted SNOs for the next 14.0 days since TLE Epoch: 12/31/2021
Index Date (FY3D) Time (FY3D) Lat,Lon (FY3D) SZA (FY3D ) Date (LANDSAT-8) Time (LANDSAT-8) Lat,Lon (LANDSAT-8) SZA (LANDSAT-8 ) Distance(km) Time Diff (sec)
1 01/02/2022 07:09:54 -71.58,-109.02 85.60 01/02/2022 07:10:34 -71.58,-108.98 85.61 1.56 40
2 01/02/2022 08:00:38 71.46, 58.50 94.28 01/02/2022 08:00:01 71.49, 58.51 94.30 2.73 37
3 01/04/2022 22:37:04 71.55,-160.75 94.12 01/04/2022 22:37:36 71.54,-160.80 94.10 2.23 32
4 01/04/2022 23:27:48 -71.49, 6.68 85.96 01/04/2022 23:27:05 -71.48, 6.74 85.97 2.07 43
5 01/07/2022 14:04:13 -71.58, 147.43 86.18 01/07/2022 14:04:38 -71.59, 147.52 86.17 3.10 25
6 01/07/2022 14:54:57 71.47, -45.06 93.71 01/07/2022 14:54:05 71.49, -45.01 93.73 2.90 52
7 01/10/2022 04:40:54 -72.44, -73.30 85.64 01/10/2022 04:42:00 -72.34, -70.58 85.80 92.03 66
8 01/10/2022 05:31:23 71.57, 95.68 93.45 01/10/2022 05:31:40 71.54, 95.68 93.42 3.50 17
9 01/10/2022 06:22:06 -71.44, -96.78 86.69 01/10/2022 06:21:10 -71.43, -96.87 86.70 3.48 56
10 01/12/2022 20:07:58 72.13,-124.46 93.63 01/12/2022 20:09:07 72.02,-122.91 93.48 54.80 69
11 01/12/2022 20:58:32 -71.54, 43.96 86.99 01/12/2022 20:58:44 -71.53, 43.90 87.01 2.51 12
12 01/12/2022 21:49:16 71.44,-148.55 92.90 01/12/2022 21:48:11 71.43,-148.63 92.89 3.29 65



Historial Predications of SNOs between FY3D and LANDSAT-8
